When you browse on this site, cookies collect data to enhance your experience and personalize the content and advertising you see.
Visit our Privacy Policy to learn more. By continuing to use the site, you agree to this use of cookies and data.
  • en Suisse
  • Liste des pays
  • À 7 jours
  • Température de l'eau
  • Carte satellitaire
  • Carte météo
  • Widgets météo
  • user-avatar
    Se connecter

    Météo par heure à Pleskachi

    Ce jour, 22 Juillet, Lundi

    Heure Température Précipitation Vent Pression Humidité
    00:00 +22°C° 0 mm 1 m/s 755 mmHg 70%
    01:00 +21°C° 0 mm 1 m/s 754 mmHg 72%
    02:00 +20°C° 0 mm 2 m/s 754 mmHg 74%
    03:00 +20°C° 0 mm 2 m/s 754 mmHg 76%
    04:00 +19°C° 0 mm 2 m/s 754 mmHg 77%
    05:00 +19°C° 0 mm 2 m/s 754 mmHg 78%
    06:00 +21°C° 0 mm 3 m/s 754 mmHg 74%
    07:00 +24°C° 0 mm 3 m/s 754 mmHg 69%
    08:00 +25°C° 0 mm 3 m/s 754 mmHg 64%
    09:00 +27°C° 0.1 mm 4 m/s 754 mmHg 61%
    10:00 +28°C° 0.1 mm 4 m/s 754 mmHg 58%
    11:00 +29°C° 0.1 mm 4 m/s 753 mmHg 54%
    12:00 +28°C° 1 mm 4 m/s 753 mmHg 62%
    13:00 +26°C° 1 mm 4 m/s 753 mmHg 70%
    14:00 +25°C° 1 mm 5 m/s 752 mmHg 79%
    15:00 +25°C° 0.9 mm 4 m/s 752 mmHg 79%
    16:00 +25°C° 0.9 mm 3 m/s 752 mmHg 79%
    17:00 +25°C° 0.9 mm 3 m/s 752 mmHg 79%
    18:00 +24°C° 0.9 mm 3 m/s 752 mmHg 82%
    19:00 +22°C° 0.9 mm 3 m/s 752 mmHg 86%
    20:00 +21°C° 0.9 mm 3 m/s 752 mmHg 89%
    21:00 +20°C° 0 mm 3 m/s 752 mmHg 90%
    22:00 +20°C° 0 mm 3 m/s 752 mmHg 92%
    23:00 +19°C° 0 mm 3 m/s 753 mmHg 93%

    Demain, 23 Juillet, Mardi

    Heure Température Précipitation Vent Pression Humidité
    00:00 +19°C° 0 mm 3 m/s 752 mmHg 93%
    01:00 +18°C° 0 mm 3 m/s 752 mmHg 93%
    02:00 +18°C° 0 mm 3 m/s 752 mmHg 93%
    03:00 +18°C° 0 mm 3 m/s 752 mmHg 93%
    04:00 +18°C° 0 mm 3 m/s 752 mmHg 93%
    05:00 +17°C° 0 mm 4 m/s 752 mmHg 93%
    06:00 +18°C° 0 mm 4 m/s 752 mmHg 90%
    07:00 +19°C° 0 mm 4 m/s 752 mmHg 86%
    08:00 +20°C° 0 mm 4 m/s 752 mmHg 82%
    09:00 +21°C° 0 mm 4 m/s 752 mmHg 75%
    10:00 +22°C° 0 mm 4 m/s 752 mmHg 68%
    11:00 +23°C° 0 mm 4 m/s 752 mmHg 61%
    12:00 +25°C° 0 mm 4 m/s 752 mmHg 59%
    13:00 +25°C° 0 mm 4 m/s 752 mmHg 57%
    14:00 +25°C° 0 mm 4 m/s 751 mmHg 55%
    15:00 +25°C° 0 mm 4 m/s 751 mmHg 58%
    16:00 +23°C° 0 mm 4 m/s 751 mmHg 62%
    17:00 +23°C° 0 mm 4 m/s 751 mmHg 65%
    18:00 +21°C° 0 mm 4 m/s 751 mmHg 71%
    19:00 +20°C° 0 mm 3 m/s 751 mmHg 77%
    20:00 +18°C° 0 mm 2 m/s 751 mmHg 82%
    21:00 +18°C° 0 mm 2 m/s 751 mmHg 84%
    22:00 +17°C° 0 mm 2 m/s 751 mmHg 86%
    23:00 +16°C° 0 mm 1 m/s 751 mmHg 88%

    Après-demain, 24 Juillet, Mercredi

    Heure Température Précipitation Vent Pression Humidité
    00:00 +16°C° 0 mm 1 m/s 751 mmHg 90%
    01:00 +16°C° 0 mm 2 m/s 751 mmHg 92%
    02:00 +15°C° 0 mm 2 m/s 750 mmHg 94%
    03:00 +15°C° 0 mm 2 m/s 750 mmHg 95%
    04:00 +15°C° 0 mm 2 m/s 750 mmHg 96%
    05:00 +15°C° 0 mm 2 m/s 750 mmHg 97%
    06:00 +16°C° 0.1 mm 2 m/s 750 mmHg 93%
    07:00 +18°C° 0.1 mm 2 m/s 750 mmHg 89%
    08:00 +19°C° 0.1 mm 2 m/s 750 mmHg 85%
    09:00 +19°C° 0.2 mm 2 m/s 750 mmHg 82%
    10:00 +20°C° 0.2 mm 3 m/s 750 mmHg 80%
    11:00 +21°C° 0.2 mm 3 m/s 750 mmHg 77%
    12:00 +22°C° 0.4 mm 3 m/s 750 mmHg 74%
    13:00 +22°C° 0.4 mm 3 m/s 750 mmHg 71%
    14:00 +24°C° 0.4 mm 3 m/s 750 mmHg 68%
    15:00 +24°C° 1.1 mm 3 m/s 750 mmHg 71%
    16:00 +22°C° 1.1 mm 4 m/s 750 mmHg 74%
    17:00 +22°C° 1.1 mm 4 m/s 750 mmHg 77%
    18:00 +21°C° 1.1 mm 4 m/s 750 mmHg 81%
    19:00 +19°C° 1.1 mm 3 m/s 750 mmHg 85%
    20:00 +18°C° 1.1 mm 3 m/s 750 mmHg 89%
    21:00 +18°C° 0.2 mm 2 m/s 751 mmHg 89%
    22:00 +17°C° 0.2 mm 2 m/s 751 mmHg 89%
    23:00 +17°C° 0.2 mm 2 m/s 751 mmHg 89%

    25 Juillet, Jeudi

    Heure Température Précipitation Vent Pression Humidité
    00:00 +17°C° 0 mm 2 m/s 751 mmHg 88%
    01:00 +18°C° 0 mm 1 m/s 751 mmHg 88%
    02:00 +18°C° 0 mm 1 m/s 750 mmHg 87%
    03:00 +17°C° 0.1 mm 2 m/s 751 mmHg 89%
    04:00 +17°C° 0.1 mm 2 m/s 751 mmHg 90%
    05:00 +17°C° 0.1 mm 2 m/s 751 mmHg 91%
    06:00 +17°C° 0.4 mm 3 m/s 751 mmHg 90%
    07:00 +17°C° 0.4 mm 3 m/s 751 mmHg 89%
    08:00 +18°C° 0.4 mm 4 m/s 751 mmHg 89%
    09:00 +19°C° 0.7 mm 4 m/s 751 mmHg 85%
    10:00 +20°C° 0.7 mm 5 m/s 752 mmHg 82%
    11:00 +22°C° 0.7 mm 5 m/s 752 mmHg 78%
    12:00 +22°C° 1.3 mm 5 m/s 751 mmHg 79%
    13:00 +22°C° 1.3 mm 5 m/s 751 mmHg 79%
    14:00 +22°C° 1.3 mm 6 m/s 751 mmHg 79%
    15:00 +22°C° 0.7 mm 5 m/s 751 mmHg 78%
    16:00 +22°C° 0.7 mm 5 m/s 751 mmHg 78%
    17:00 +22°C° 0.7 mm 5 m/s 751 mmHg 78%
    18:00 +21°C° 0.3 mm 4 m/s 751 mmHg 81%
    19:00 +20°C° 0.3 mm 4 m/s 751 mmHg 85%
    20:00 +19°C° 0.3 mm 4 m/s 751 mmHg 89%
    21:00 +19°C° 0 mm 3 m/s 751 mmHg 90%
    22:00 +18°C° 0 mm 3 m/s 751 mmHg 91%
    23:00 +18°C° 0 mm 3 m/s 752 mmHg 93%

    26 Juillet, Vendredi

    Heure Température Précipitation Vent Pression Humidité
    00:00 +18°C° 0 mm 3 m/s 751 mmHg 94%
    01:00 +17°C° 0 mm 3 m/s 751 mmHg 95%
    02:00 +17°C° 0 mm 3 m/s 751 mmHg 96%
    03:00 +17°C° 0.1 mm 3 m/s 751 mmHg 97%
    04:00 +17°C° 0.1 mm 4 m/s 752 mmHg 97%
    05:00 +17°C° 0.1 mm 4 m/s 752 mmHg 97%
    06:00 +18°C° 0.3 mm 4 m/s 752 mmHg 96%
    07:00 +17°C° 0.3 mm 5 m/s 752 mmHg 95%
    08:00 +17°C° 0.3 mm 5 m/s 752 mmHg 94%
    09:00 +19°C° 0.6 mm 5 m/s 752 mmHg 93%
    10:00 +19°C° 0.6 mm 5 m/s 752 mmHg 91%
    11:00 +20°C° 0.6 mm 5 m/s 752 mmHg 89%
    12:00 +21°C° 0 mm 5 m/s 752 mmHg 85%
    13:00 +22°C° 0 mm 6 m/s 752 mmHg 80%
    14:00 +23°C° 0 mm 6 m/s 752 mmHg 75%
    15:00 +25°C° 0 mm 5 m/s 752 mmHg 74%
    16:00 +25°C° 0 mm 4 m/s 752 mmHg 72%
    17:00 +25°C° 0 mm 4 m/s 752 mmHg 71%
    18:00 +23°C° 0.3 mm 4 m/s 752 mmHg 77%
    19:00 +22°C° 0.3 mm 4 m/s 752 mmHg 84%
    20:00 +20°C° 0.3 mm 4 m/s 752 mmHg 90%
    21:00 +20°C° 0 mm 4 m/s 752 mmHg 91%
    22:00 +19°C° 0 mm 4 m/s 752 mmHg 91%
    23:00 +19°C° 0 mm 3 m/s 752 mmHg 92%

    27 Juillet, Samedi

    Heure Température Précipitation Vent Pression Humidité
    00:00 +18°C° 0 mm 3 m/s 752 mmHg 92%
    01:00 +18°C° 0 mm 3 m/s 751 mmHg 93%
    02:00 +18°C° 0 mm 3 m/s 751 mmHg 94%
    03:00 +17°C° 0 mm 3 m/s 751 mmHg 93%
    04:00 +17°C° 0 mm 3 m/s 751 mmHg 93%
    05:00 +17°C° 0 mm 3 m/s 751 mmHg 93%
    06:00 +18°C° 0 mm 3 m/s 752 mmHg 89%
    07:00 +20°C° 0 mm 4 m/s 752 mmHg 84%
    08:00 +21°C° 0 mm 4 m/s 752 mmHg 80%
    09:00 +22°C° 0 mm 4 m/s 752 mmHg 74%
    10:00 +23°C° 0 mm 4 m/s 752 mmHg 67%
    11:00 +26°C° 0 mm 5 m/s 752 mmHg 61%
    12:00 +26°C° 0 mm 5 m/s 751 mmHg 59%
    13:00 +26°C° 0 mm 5 m/s 751 mmHg 57%
    14:00 +26°C° 0 mm 5 m/s 751 mmHg 55%
    15:00 +26°C° 0 mm 5 m/s 751 mmHg 56%
    16:00 +26°C° 0 mm 5 m/s 750 mmHg 56%
    17:00 +26°C° 0 mm 4 m/s 750 mmHg 56%
    18:00 +24°C° 0 mm 3 m/s 750 mmHg 62%
    19:00 +22°C° 0 mm 3 m/s 750 mmHg 68%
    20:00 +21°C° 0 mm 2 m/s 750 mmHg 74%
    21:00 +20°C° 0.2 mm 2 m/s 750 mmHg 79%
    22:00 +20°C° 0.2 mm 2 m/s 750 mmHg 84%
    23:00 +19°C° 0.2 mm 3 m/s 749 mmHg 88%
    Voir plus